{"data":{"norad_id":68609,"intl_designator":"2026-073H","name":"STARLINK-37250","alt_names":[],"object_type":"PAYLOAD","status":"ACTIVE","operator":null,"country":"US","launch_date":"2026-04-07","launch_site_code":"AFWTR","launch_vehicle":null,"mission":null,"orbit_class":"UNKNOWN","rcs_meters":null,"size_class":null,"mass_kg":null,"dimensions":null,"purposes":["comms"],"wikipedia_slug":null,"has_3d_model":false,"image_url":null,"decayed_at":null,"tle_current":{"epoch":"2026-09-19T20:01:11.313408Z","epoch_age_seconds":101526,"freshness":"FRESH","line1":"1 68609U 26073H   26262.83415872  .00014651  00000+0  45514-3 0  9991","line2":"2 68609  97.2853 100.7845 0002617  93.7394 266.4148 15.33450290 25630","mean_motion":15.3345029,"eccentricity":0.0002617,"inclination_deg":97.2853,"raan_deg":100.7845,"arg_perigee_deg":93.7394,"mean_anomaly_deg":266.4148,"bstar":0.00045514,"rev_number":2563,"period_min":93.905880705138,"perigee_km":463.73644822252,"apogee_km":467.3184221879,"semimajor_km":6843.6644352052,"source":"CELESTRAK","updated_at":"2026-09-20T09:00:43.943071Z"}}}